Regional Weather Roundup
Issued by NWS Upton, NY

Current Version | Previous Version | Text Only | Print | Product List | Glossary On
Versions: 1 2 3 4 5 6 7 8 9 10 11 12 13 14 15 16 17 18 19 20 21 22 23 24 25 26 27
000
ASUS41 KOKX 221909
RWROKX

REGIONAL WEATHER ROUNDUP
NATIONAL WEATHER SERVICE NEW YORK NY
300 PM EDT FRI SEP 22 2017

NOTE: "FAIR" INDICATES FEW OR NO CLOUDS BELOW 12,000 FEET WITH NO
SIGNIFICANT WEATHER AND/OR OBSTRUCTIONS TO VISIBILITY.

NYZ071-072-176-178-NJZ106-104-222000-
NEW YORK CITY METRO AREA

CITY           SKY/WX    TMP DP  RH WIND       PRES   REMARKS
Central Park   SUNNY     82  57  42 N9        29.98F
Bronx Bot Gard   N/A     79  54  41 NW15      29.96F
LaGuardia APRT MOSUNNY   80  58  46 N14G24    29.94F
Kennedy INTL   PTSUNNY   83  57  41 N17G26    29.94F
Breezy Point     N/A     79 N/A N/A N14G21      N/A
Newark/Liberty PTSUNNY   85  55  35 NW17      29.95F
Teterboro      SUNNY     83  57  41 N10       29.94F
$$

NYZ177-179-078>081-222000-
LONG ISLAND NEW YORK

CITY           SKY/WX    TMP DP  RH WIND       PRES   REMARKS
Jones Beach      N/A     77 N/A N/A N20G25      N/A
Matinecock PT    N/A     75 N/A N/A N16         N/A
Farmingdale    SUNNY     81  58  45 N16G26    29.92F
MacArthur/ISP  PTSUNNY   80  61  52 N17       29.90F
Shirley        CLOUDY    79  60  52 N17G26    29.91F
Mt Sinai Harb    N/A    N/A N/A N/A N14G21      N/A
Westhampton    CLOUDY    75  60  59 N14G22    29.91S
East Hampton   CLOUDY    70  60  70 N16G22    29.90F
Montauk          N/A     66  60  81 N15G28    29.91F
$$

NYZ052-065-067-222000-
HUDSON VALLEY

CITY           SKY/WX    TMP DP  RH WIND       PRES   REMARKS
White Plains   MOSUNNY   80  56  43 N13G21    29.96F
Larchmont Harb   N/A     77 N/A N/A N15G21      N/A
Croton On Huds   N/A     81 N/A N/A N6G16       N/A
Newburgh       MOSUNNY   79  55  44 NE16G23   30.02F
Montgomery     SUNNY     80  54  40 NE12      30.00F
Poughkeepsie   SUNNY     78  53  41 N12       29.99F
Albany         CLOUDY    78  49  35 N13       30.06F
$$

NJZ001-105-106-008-010-013-015-019>022-104-222000-
NEW JERSEY

CITY           SKY/WX    TMP DP  RH WIND       PRES   REMARKS
Newark/Liberty PTSUNNY   85  55  35 NW17      29.95F
Teterboro      SUNNY     83  57  41 N10       29.94F
Caldwell       SUNNY     83  57  41 VRB7      29.97F
Somerville     NOT AVBL
Linden         MOCLDY    82  53  37 N12       29.96F
Perth Amboy      N/A     79 N/A N/A N17         N/A
Sussex         CLOUDY    81  57  43 NE10      30.00F
Andover          N/A     81  57  43 NE8       30.01F
Trenton        SUNNY     84  58  40 N14       29.96F
Millville      PTSUNNY   79  62  56 NW10      29.97F
Atlantic City  PTSUNNY   80  59  48 NW14      29.96S
Wrightstown    CLOUDY    82  59  46 NW14      29.92F
Toms River     CLOUDY    82  60  47 N14G21    29.95F
Belmar         MOSUNNY   81  57  43 NW16      29.96S
$$

PAZ047>061-062-071-222000-
EASTERN PENNSYLVANIA

CITY           SKY/WX    TMP DP  RH WIND       PRES   REMARKS
Philadelphia   PTSUNNY   82  55  39 NW13      29.97F
Allentown      SUNNY     85  53  33 NE9       30.00F
Scranton       SUNNY     82  45  27 NW10      30.05F
$$

CTZ002-004>006-009-010-012-RIZ004-006-007-MAZ004-011-015-222000-
SOUTHERN NEW ENGLAND
 IN CT

CITY           SKY/WX    TMP DP  RH WIND       PRES   REMARKS
Bradley INTL   MOSUNNY   77  54  44 N20G30    29.98F
Hartford       MOSUNNY   76  55  48 N13G24    29.96F
Danbury        MOSUNNY   81  58  45 N13       29.98F
Wtrbury/Oxford MOSUNNY   76  59  55 N17G28    29.98F
Norwalk Harbor   N/A     79 N/A N/A N20G28      N/A
Bridgeport     MOSUNNY   83  60  45 N14G23    29.93S
Meriden        SUNNY     78  55  44 N14G26    29.95F
New Haven      SUNNY     79  56  45 N18G30    29.93S
Chester        CLOUDY    77  59  53 N18G25    29.94S
Groton         CLOUDY    70  59  68 N25G32    29.90F
Wilimantic     LGT RAIN  69  60  73 NE14      29.97S

 IN RI

CITY           SKY/WX    TMP DP  RH WIND       PRES   REMARKS
Providence     CLOUDY    61  59  93 N20G36    29.95F
Block Island   CLOUDY    62  57  83 N20G33    29.89S
Westerly       CLOUDY    67  58  72 N18G31    29.92S
 IN MA

CITY           SKY/WX    TMP DP  RH WIND       PRES   REMARKS
Boston         CLOUDY    60  57  89 N22G32    29.99F
Worcester      CLOUDY    65  53  65 N14G22    30.01F
Westfield      MOSUNNY   77  51  40 N14G21    30.00F
Provincetown   CLOUDY    59  58  96 NE25G37   29.92S FOG
Nantucket      LGT RAIN  62  62 100 NE28G37   29.78F FOG
$$

ANZ330-335-338-340-345-350-353-355-222000-
COASTAL MARINE OBSERVATIONS


STATION/POSITION TIME  SKY/WX   TEMP    WIND        PRES    VSBY  WAVE
                                AIR SEA DIR/SP/G                  HT/PER
                 (UTC)          (F)     (DEG/KT/KT) (MB)    (MI)  (FT/S)
NY HARB ENTRANCE 1750            73 70  330/ 16/ 17 1013.0          5/10
20 S FIRE ISLAND 1750            70 67  340/ 12/ 14 1013.0          7/ 9
GREAT SOUTH BAY  1830            75 70  360/ 16/ 21   N/A
23 SSW MONTAUK P 1750            65 65              1012.0          9/ 7
15 E BARNEGAT LI 1830               69                N/A           7/11
HUDSON CANYON    1850            68 69   10/ 17/ 21 1011.2         10/ 9
KINGS POINT      1830            77 71   50/ 13/ 16 1014.8
EXECUTION ROCKS  1845            78      20/ 14/ 19   N/A
WESTERN LI SOUND NOT AVBL
CENTRAL LI SOUND NOT AVBL
EASTERN LI SOUND NOT AVBL
ROBBINS REEF     1830            79     320/ 16/ 20 1014.9
$$


>>>>>>>>>>>>>>>>>>>>>>>>>>>> KEY <<<<<<<<<<<<<<<<<<<<<<<<<<<
>                                                          <
>     SKY/WX - Sky Condition/Present Weather               <
>     TMP    - Temperature in Fahrenheit                   <
>     DP     - Dew Point in Fahrenheit                     <
>     RH     - Relative Humidity in Percent                <
>     WIND   - Direction (from) and Speed in MPH           <
>     PRES   - Mean Sea Level Pressure (inches of Hg)      <
>     WCI    - Wind Chill Index                            <
>     VSB    - VISIBILITY IN MILES                         <
>     HX     - HEAT INDEX                                  <
>     TC     - TEMPERATURE IN CELSIUS                      <
>     VRB    - VARIABLE WIND DIRECTION                     <
>                                                          <
>>>>>>>>>>>>>>>>>>>>>>>>>>>> KEY <<<<<<<<<<<<<<<<<<<<<<<<<<<




USA.gov is the U.S. government's official web portal to all federal, state and local government web resources and services.